Regional Weather Roundup
Issued by NWS Binghamton, NY

Home | Current Version | Previous Version | Text Only | Print | Product List | Glossary On
Versions: 1 2 3 4 5 6 7 8 9 10 11 12 13 14 15 16 17 18 19 20 21 22 23 24 25 26 27 28 29 30 31 32 33 34 35 36 37 38 39 40 41 42 43 44 45 46 47 48 49 50
000
ASUS41 KBGM 292210
RWRBGM
RWRBGM
BINGHAMTON REGIONAL WEATHER ROUNDUP
NATIONAL WEATHER SERVICE BINGHAMTON NY
500 PM EST THU JAN 29 2015

Note: "fair" indicates few or no clouds below 12,000 feet with no
significant weather and/or obstructions to visibility.

* = Station(s) that does not report precipitation, such as rain,
snow, etc, also no thunder or fog.

!NYZ009-015>018-022>025-036-037-044>046-055>057-062-292300
...CENTRAL NEW YORK...

CITY           SKY/WX    TMP DP  RH WIND       PRES   REMARKS
BINGHAMTON     CLOUDY    29   2  31 S16G26    29.85F WCI  17
CORTLAND       CLOUDY    32   7  34 S14G22    29.84F WCI  22
DANSVILLE      FLURRIES  31  22  69 S18G28    29.79S WCI  19
ELMIRA         LGT SNOW  28  20  71 SW20      29.86F WCI  15
ITHACA         CLOUDY    31   8  38 S17G23    29.84F WCI  20
HAMILTON       CLOUDY    34   3  27 S18G30    29.87  WCI  23
HORNELL        LGT SNOW  27  21  80 SE9       29.82R WCI  17
MONTICELLO     CLOUDY    25   5  42 SE14      30.01F WCI  13
NORWICH        CLOUDY    30   3  31 S15       29.91F WCI  19
ONEONTA        CLEAR     30  -4  22 S8G16     29.89S WCI  23
PENN YAN       CLOUDY    29  18  63 S18G26    29.81R WCI  16
ROME           CLOUDY    28   9  44 SE13      29.92F WCI  17
SIDNEY         CLOUDY    32   3  29 S3        29.93S
SYRACUSE       CLOUDY    35   6  29 S18G29    29.83F WCI  24
$$

!PAZ038>040-043-044-047-048-072-292300
...NORTHEAST PENNSYLVANIA...

CITY           SKY/WX    TMP DP  RH WIND       PRES   REMARKS
HAZLETON       CLOUDY    27   9  46 SE10G21   29.98F WCI  17
SCRANTON       CLOUDY    31   3  30 S5        29.99S WCI  26
TOWANDA*       PTCLDY    32   7  34 SW18G26   29.91F WCI  20
$$
&&
KEY
WCI = WIND CHILL INDEX
VSB = VISIBILITY
HX  = HEAT INDEX
$$



USA.gov is the U.S. government's official web portal to all federal, state and local government web resources and services.